ellitoral.com.ar alexa rank chart, ellitoral.com.ar alexa rank daily changes

ellitoral.com.ar alexa rank chart, ellitoral.com.ar alexa rank daily changes

ellitoral.com.ar
Actual rank:
86 352

RANK HISTORY

Date Rank Diff
2017/05/28 86 352 -463
2017/05/27 86 815 +2 475
2017/05/26 84 340 -376
2017/05/25 84 716 -426
2017/05/24 85 142 -1 078
2017/05/23 86 220 +720
2017/05/22 85 500 +887
2017/05/21 84 613 +122
2017/05/20 84 491 +860
2017/05/19 83 631 +453
2017/05/18 83 178 -960
2017/05/17 84 138 -1 591
2017/05/16 85 729 -918
2017/05/15 86 647 -1 035
2017/05/14 87 682 -173
2017/05/13 87 855 +612
2017/05/12 87 243 -494
2017/05/11 87 737 -402
2017/05/10 88 139 -506
2017/05/09 88 645 +376
2017/05/08 88 269 -322
2017/05/07 88 591 -2 287
2017/05/06 90 878 +367
2017/05/05 90 511 -492
2017/05/04 91 003 -998
2017/05/03 92 001 +166
2017/05/02 91 835 +125
2017/05/01 91 710 +736
2017/04/30 90 974 -1 829
2017/04/29 92 803 +459
2017/04/28 92 344 -646
2017/04/27 92 990 -3 325
2017/04/26 96 315 -211
2017/04/25 96 526 +133
2017/04/24 96 393 +196
2017/04/23 96 197 -1 574
2017/04/22 97 771 -664
2017/04/21 98 435 -2 518
2017/04/20 100 953 +309
2017/04/19 100 644 -2 134
2017/04/18 102 778 +1 785
2017/04/17 100 993 +1 352
2017/04/16 99 641 +1 208
2017/04/15 98 433 +286
2017/04/14 98 147 +1 034
2017/04/13 97 113 -669
2017/04/12 97 782 -548
2017/04/11 98 330 -864
2017/04/10 99 194 -1 109
2017/04/09 100 303 +109
2017/04/08 100 194 +523
2017/04/07 99 671 +746
2017/04/06 98 925 -1 338
2017/04/05 100 263 -27
2017/04/04 100 290 +1 775
2017/04/03 98 515 +202
2017/04/02 98 313 +28
2017/04/01 98 285 -512
2017/03/31 98 797 +434
2017/03/30 98 363 +50
2017/03/29 98 313

WIDGET FOR YOUR SITE

DOMAINS WITH THE NEAREST RANK

Domain Rank
speedway.com 86 347
finlex.fi 86 348
brainbux.com 86 349
dubaitrade.ae 86 350
gsuplementos.com.br 86 351
ellitoral.com.ar 86 352
salaire-brut-en-net.fr 86 353
risaokano.com 86 354
worldstarporn.net 86 355
openupcase.com 86 356
jeftinije.hr 86 357

DOMAINS WITH THE NEAREST RANK BY TLD .com.ar

Domain Rank
terra.com.ar 83 971
cinesargentinos.com.ar 84 156
trivago.com.ar 85 052
omnilineas.com.ar 86 085
ompersonal.com.ar 86 097
ellitoral.com.ar 86 352
solodeportes.com.ar 86 477
guiachinpum.com.ar 87 727
turismocity.com.ar 88 293
tarjetacencosud.com.ar 88 840
cablevisionflow.com.ar 89 109